[[{"header":{"parameterUnit":"m.s-1","parameterCategory":1,"la1":30.2991,"la2":30.254,"lo1":-89.0895,"lo2":-89.0444,"dy":0.0017,"dx":0.0017,"nx":28,"ny":28,"refTime":"2024-10-02T09:00:00:Z","depth":0,"parameterNumber":2,"parameterNumberName":"U-component_of_WINDS"},"data":[0,0,0,0,0,0,0,0,0,0,0,0,0,0,0,0,0,0,0,0,0,0,0,0,0,0,0,0,0,0,0,0,0,0,0,0,0,0,0,0,0,0,0,0,0,0,0,0,0,0,0,0,0,0,0,0,0,0,-5.0688,-5.069,0,-5.0837,-5.0839,-5.084,-5.0819,-5.0817,-5.0814,-5.0812,-5.0967,-5.0973,-5.098,0,0,0,0,0,0,0,0,0,0,0,0,0,-5.0389,-5.0395,-5.0688,-5.069,-5.0692,-5.0837,-5.0839,-5.0841,-5.082,-5.0817,-5.0813,-5.0811,-5.0965,-5.0973,-5.098,0,0,0,0,0,0,0,0,0,0,0,0,0,-5.0527,-5.0397,-5.0688,-5.0698,-5.0701,-5.0836,-5.0839,-5.0841,-5.082,-5.0816,-5.0813,-5.0809,-5.0963,-5.0972,-5.0982,-5.1116,0,0,-5.1011,-5.1015,0,0,0,0,0,0,0,0,-5.0519,-5.0538,-5.0695,-5.0698,-5.0701,-5.0806,-5.079,-5.0934,-5.0821,-5.0775,-5.0812,-5.0807,-5.0917,-5.093,-5.0966,-5.1124,-5.113,-5.1012,-5.1018,-5.1022,-5.1025,0,0,0,0,0,0,0,-5.0509,-5.0531,-5.0747,-5.0697,-5.0701,-5.0697,-5.0713,-5.0817,-5.0865,-5.0779,-5.0778,-5.0795,-5.0918,-5.0957,-5.097,-5.1133,-5.1012,-5.102,-5.1026,-5.103,-5.1412,-5.1416,0,0,0,0,0,0,-5.0496,-5.0523,-5.0742,-5.0751,-5.0599,-5.0706,-5.0723,-5.0776,-5.0864,-5.0874,-5.0798,-5.0794,-5.0942,-5.0958,-5.0975,-5.1141,-5.1022,-5.1031,-5.1037,-5.1408,-5.1413,-5.1418,0,0,0,0,0,0,-5.049,-5.0516,-5.0736,-5.0637,-5.0665,-5.0715,-5.0774,-5.0781,-5.082,-5.0879,-5.0887,-5.0829,-5.094,-5.0961,-5.1082,-5.1146,-5.1035,-5.1044,-5.1403,-5.1409,-5.1415,-5.1473,0,0,0,0,0,0,-5.0482,-5.0514,-5.0565,-5.0638,-5.067,-5.0839,-5.0778,-5.0786,-5.0836,-5.0832,-5.091,-5.092,-5.0939,-5.1068,-5.1092,-5.1157,-5.1052,-5.1397,-5.1406,-5.1413,-5.1465,-5.148,-5.1493,0,0,0,0,0,-5.0471,-5.0575,-5.0567,-5.0594,-5.0734,-5.0843,-5.0861,-5.088,-5.0841,-5.0894,-5.0932,-5.0917,-5.1135,-5.108,-5.1107,-5.1177,-5.1393,-5.1403,-5.1413,-5.1459,-5.1477,-5.1493,0,0,0,0,0,0,-5.0507,-5.0584,-5.0577,-5.0707,-5.0769,-5.0839,-5.0905,-5.0899,-5.0973,-5.0966,-5.0987,-5.1005,-5.1127,-5.1164,-5.1101,-5.1314,-5.1259,-5.1275,-5.1285,-5.1303,-5.1317,-5.1306,-5.106,0,0,0,0,0,-5.053,-5.0611,-5.0675,-5.0784,-5.0815,-5.0855,-5.0903,-5.0912,-5.0977,-5.1003,-5.105,-5.1115,-5.1198,-5.1252,-5.1332,-5.147,-5.1489,-5.1532,-5.1546,-5.1557,-5.157,-5.1649,-5.167,-5.145,-5.1449,-5.1449,0,0,-5.0579,-5.0631,-5.0681,-5.0792,-5.0841,-5.0926,-5.0877,-5.0968,-5.1032,-5.1017,-5.1134,-5.1171,-5.1245,-5.1376,-5.1436,-5.141,-5.1635,-5.1569,-5.1578,-5.1585,-5.1661,-5.1682,-5.1701,-5.1456,-5.1455,-5.1454,0,0,-5.0711,-5.0758,-5.0855,-5.0905,-5.098,-5.1006,-5.103,-5.1102,-5.1126,-5.1243,-5.1235,-5.1312,-5.1454,-5.1508,-5.1554,-5.1709,-5.17,-5.1735,-5.1808,-5.1885,-5.1902,-5.1918,-5.1975,-5.1996,-5.1748,-5.1748,-5.1748,0,-5.0762,-5.0889,-5.0906,-5.0999,-5.105,-5.104,-5.114,-5.1188,-5.1285,-5.1321,-5.1291,-5.1471,-5.152,-5.1664,-5.1702,-5.1739,-5.1768,-5.1726,-5.1898,-5.1914,-5.1928,-5.1984,-5.2005,-5.1752,-5.1752,-5.1751,-5.1751,0,-5.0949,-5.1037,-5.1107,-5.1201,-5.1259,-5.1355,-5.1389,-5.1446,-5.1451,-5.1482,-5.1603,-5.1662,-5.1754,-5.1789,-5.1794,-5.1936,-5.1918,-5.1893,-5.1838,-5.1953,-5.2006,-5.2027,-5.1758,-5.1756,-5.1755,-5.1754,0,0,-5.1108,-5.1211,-5.1237,-5.1281,-5.1363,-5.1433,-5.1529,-5.1619,-5.1669,-5.1737,-5.182,-5.1942,-5.192,-5.1972,-5.1984,-5.2051,-5.2174,-5.2018,-5.202,-5.2047,-5.2336,-5.2356,-5.238,-5.2168,-5.2172,-5.2175,-5.2331,0,-5.1249,-5.1419,-5.1439,-5.1591,-5.1674,-5.1668,-5.1753,-5.1814,-5.1845,-5.1921,-5.1957,-5.2044,-5.2006,-5.2038,-5.2104,-5.2145,-5.2233,-5.2134,-5.2248,-5.2251,-5.2231,-5.2407,-5.2428,-5.2572,-5.2351,-5.2355,-5.2357,0,-5.1437,-5.151,-5.1671,-5.1744,-5.178,-5.1856,-5.1942,-5.2014,-5.2084,-5.2103,-5.2162,-5.2166,-5.2268,-5.221,-5.2353,-5.2285,-5.2333,-5.236,-5.2366,-5.2379,-5.2312,-5.2426,-5.2618,-5.264,-5.2389,-5.2387,-5.2385,0,-5.1539,-5.1678,-5.1793,-5.183,-5.1918,-5.1972,-5.2011,-5.2078,-5.2132,-5.2207,-5.2243,-5.2329,-5.2377,-5.2445,-5.2473,-5.2427,-5.2616,-5.2559,-5.2636,-5.2636,-5.2677,-5.2674,-5.2881,-5.2705,-5.2705,-5.2704,-5.2704,0,-5.1695,-5.1794,-5.184,-5.191,-5.2022,-5.2045,-5.2155,-5.2193,-5.2252,-5.2332,-5.2332,-5.2407,-5.2438,-5.2519,-5.2542,-5.2658,-5.2679,-5.2699,-5.2704,-5.27,-5.2698,-5.2733,-5.2724,-5.271,-5.2709,-5.2708,-5.2707,0,-5.1828,-5.1862,-5.1987,-5.2061,-5.2082,-5.2161,-5.2225,-5.2295,-5.2326,-5.2427,-5.2452,-5.2502,-5.2597,-5.2632,-5.2748,-5.2763,-5.2899,-5.2895,-5.2875,-5.2877,-5.2953,-5.2946,-5.3191,-5.3225,-5.3025,-5.3027,-5.3028,0,-5.1926,-5.2003,-5.2085,-5.2138,-5.218,-5.2265,-5.232,-5.2346,-5.2404,-5.2491,-5.2551,-5.2646,-5.2723,-5.2876,-5.2924,-5.3013,-5.3013,-5.3092,-5.3026,-5.302,-5.3016,-5.3012,-5.3021,-5.3105,-5.3107,-5.3108,-5.311,0,-5.2098,-5.2112,-5.2191,-5.2278,-5.2344,-5.2413,-5.248,-5.2524,-5.256,-5.2626,-5.2723,-5.2783,-5.2902,-5.2998,-5.309,-5.3132,-5.3129,-5.313,-5.3153,-5.315,-5.3137,-5.3148,-5.2911,-5.3125,-5.3123,-5.3122,-5.3121,-5.3121,-5.2218,-5.2287,-5.2356,-5.2445,-5.2499,-5.2562,-5.2632,-5.2673,-5.2754,-5.2852,-5.2863,-5.2969,-5.304,-5.3164,-5.3211,-5.3295,-5.3274,-5.3306,-5.3315,-5.3323,-5.333,-5.3122,-5.3312,-5.3311,-5.3311,-5.3311,-5.331,0,-5.2392,-5.2436,-5.2518,-5.2613,-5.2684,-5.2673,-5.2748,-5.2808,-5.2901,-5.2967,-5.3044,-5.3157,-5.325,-5.3306,-5.34,-5.3457,-5.3458,-5.3481,-5.3478,-5.3488,-5.3342,-5.3314,-5.3479,-5.3479,-5.3479,-5.3478,-5.3478,-5.3478,-5.249,-5.2606,-5.2629,-5.2773,-5.2817,-5.292,-5.2964,-5.3024,-5.3077,-5.3204,-5.3281,-5.3316,-5.338,-5.3478,-5.3564,-5.3578,-5.3614,-5.3639,-5.3652,-5.3515,-5.3498,-5.3481,-5.3455,-5.3646,-5.3647,-5.3791,-5.3792,-5.3793]},{"header":{"parameterUnit":"m.s-1","parameterCategory":1,"la1":30.2991,"la2":30.254,"lo1":-89.0895,"lo2":-89.0444,"dy":0.0017,"dx":0.0017,"nx":28,"ny":28,"refTime":"2024-10-02T09:00:00:Z","depth":0,"parameterNumber":3,"parameterNumberName":"V-component_of_WINDS"},"data":[0,0,0,0,0,0,0,0,0,0,0,0,0,0,0,0,0,0,0,0,0,0,0,0,0,0,0,0,0,0,0,0,0,0,0,0,0,0,0,0,0,0,0,0,0,0,0,0,0,0,0,0,0,0,0,0,0,0,-0.2349,-0.2349,0,-0.2326,-0.2326,-0.2325,-0.2261,-0.226,-0.2258,-0.2257,-0.2237,-0.2238,-0.2238,0,0,0,0,0,0,0,0,0,0,0,0,0,-0.2342,-0.2343,-0.2349,-0.2349,-0.2349,-0.2326,-0.2326,-0.2325,-0.2261,-0.226,-0.2258,-0.2256,-0.2237,-0.2238,-0.2238,0,0,0,0,0,0,0,0,0,0,0,0,0,-0.2335,-0.2343,-0.235,-0.2314,-0.2311,-0.2326,-0.2326,-0.2325,-0.2262,-0.226,-0.2258,-0.2256,-0.2236,-0.2237,-0.2239,-0.2287,0,0,-0.2242,-0.2243,0,0,0,0,0,0,0,0,-0.2336,-0.2335,-0.232,-0.2317,-0.2313,-0.2294,-0.2316,-0.2313,-0.2262,-0.2281,-0.2257,-0.2255,-0.2258,-0.2257,-0.2257,-0.2286,-0.2286,-0.2242,-0.2243,-0.2243,-0.2244,0,0,0,0,0,0,0,-0.2336,-0.2336,-0.234,-0.232,-0.2315,-0.2301,-0.2297,-0.2315,-0.2281,-0.2279,-0.2274,-0.2272,-0.2256,-0.2257,-0.2257,-0.2285,-0.2242,-0.2243,-0.2244,-0.2244,-0.2353,-0.2355,0,0,0,0,0,0,-0.2341,-0.2337,-0.2341,-0.2339,-0.2319,-0.2302,-0.2299,-0.2302,-0.2281,-0.2276,-0.2274,-0.2269,-0.2256,-0.2255,-0.2256,-0.2312,-0.2243,-0.2244,-0.2245,-0.2351,-0.2353,-0.2356,0,0,0,0,0,0,-0.2341,-0.2342,-0.2342,-0.2337,-0.2336,-0.2305,-0.231,-0.2303,-0.2304,-0.2277,-0.2271,-0.2281,-0.2254,-0.2254,-0.228,-0.231,-0.2245,-0.2246,-0.2348,-0.2352,-0.2355,-0.2424,0,0,0,0,0,0,-0.2341,-0.2343,-0.236,-0.2338,-0.2336,-0.2366,-0.2311,-0.2304,-0.2305,-0.2299,-0.2282,-0.2277,-0.2252,-0.2278,-0.2281,-0.231,-0.2247,-0.2345,-0.235,-0.2354,-0.2419,-0.2429,-0.2438,0,0,0,0,0,-0.2341,-0.2382,-0.2361,-0.2362,-0.2357,-0.2368,-0.2367,-0.2336,-0.2308,-0.2326,-0.2309,-0.2278,-0.2306,-0.2281,-0.2284,-0.2314,-0.2343,-0.2348,-0.2353,-0.2415,-0.2427,-0.2438,0,0,0,0,0,0,-0.241,-0.2378,-0.2355,-0.2389,-0.2381,-0.2357,-0.2379,-0.2351,-0.2352,-0.2346,-0.2309,-0.2306,-0.2337,-0.2328,-0.2301,-0.236,-0.2319,-0.2325,-0.2365,-0.2377,-0.2387,-0.2389,-0.2248,0,0,0,0,0,-0.2429,-0.2439,-0.2411,-0.2443,-0.244,-0.241,-0.2414,-0.239,-0.2382,-0.2378,-0.2363,-0.2357,-0.2364,-0.237,-0.2375,-0.2417,-0.2413,-0.2439,-0.2448,-0.2456,-0.2462,-0.2484,-0.2496,-0.2372,-0.2372,-0.2372,0,0,-0.2469,-0.2452,-0.2461,-0.2457,-0.2448,-0.246,-0.2408,-0.2423,-0.2432,-0.2381,-0.2404,-0.2393,-0.2383,-0.2417,-0.2431,-0.241,-0.2495,-0.2463,-0.2469,-0.2471,-0.249,-0.2502,-0.2513,-0.2376,-0.2375,-0.2374,0,0,-0.2547,-0.2535,-0.2561,-0.2553,-0.254,-0.2519,-0.2526,-0.2505,-0.2495,-0.2517,-0.2479,-0.2489,-0.2503,-0.2497,-0.2497,-0.2572,-0.2544,-0.2574,-0.2626,-0.2647,-0.2657,-0.2666,-0.2694,-0.2704,-0.258,-0.258,-0.258,0,-0.2599,-0.2615,-0.2579,-0.2596,-0.2596,-0.2548,-0.2574,-0.2569,-0.2559,-0.256,-0.2536,-0.2551,-0.2541,-0.2574,-0.2592,-0.2592,-0.2599,-0.2577,-0.2658,-0.2667,-0.2674,-0.27,-0.2711,-0.2584,-0.2584,-0.2583,-0.2583,0,-0.2679,-0.269,-0.2713,-0.2703,-0.2705,-0.2727,-0.2695,-0.2702,-0.2678,-0.266,-0.2684,-0.267,-0.2672,-0.2677,-0.2655,-0.2706,-0.2694,-0.2665,-0.2624,-0.269,-0.2715,-0.2724,-0.259,-0.2588,-0.2587,-0.2586,0,0,-0.2802,-0.2771,-0.278,-0.2775,-0.2756,-0.2765,-0.2785,-0.2785,-0.2791,-0.2786,-0.2802,-0.2814,-0.2786,-0.2785,-0.2762,-0.2781,-0.2842,-0.2749,-0.2748,-0.2768,-0.29,-0.2923,-0.2935,-0.2823,-0.2824,-0.2826,-0.2901,0,-0.2878,-0.2909,-0.2877,-0.2915,-0.2926,-0.288,-0.2897,-0.2888,-0.2872,-0.2879,-0.2861,-0.2871,-0.2833,-0.2832,-0.2849,-0.2832,-0.2869,-0.2825,-0.284,-0.2841,-0.2845,-0.2948,-0.2972,-0.3044,-0.291,-0.2912,-0.2913,0,-0.297,-0.2967,-0.3006,-0.2984,-0.2988,-0.3004,-0.3001,-0.3008,-0.2997,-0.2984,-0.2982,-0.2953,-0.2972,-0.293,-0.2957,-0.2928,-0.2931,-0.2924,-0.2926,-0.2928,-0.2882,-0.2954,-0.3066,-0.3077,-0.2927,-0.2926,-0.2925,0,-0.3058,-0.3063,-0.3087,-0.3084,-0.3059,-0.3072,-0.3062,-0.3049,-0.3051,-0.3049,-0.305,-0.3051,-0.3052,-0.3053,-0.3025,-0.2997,-0.3056,-0.3011,-0.3047,-0.3048,-0.3063,-0.3063,-0.3179,-0.3062,-0.3062,-0.3062,-0.3062,0,-0.3146,-0.3172,-0.3126,-0.3142,-0.317,-0.3132,-0.3162,-0.3147,-0.3136,-0.3148,-0.3108,-0.3121,-0.3082,-0.3091,-0.3069,-0.3095,-0.3095,-0.3086,-0.3081,-0.3091,-0.3092,-0.3094,-0.3089,-0.3065,-0.3064,-0.3064,-0.3063,0,-0.3249,-0.322,-0.3243,-0.3217,-0.3211,-0.3233,-0.3211,-0.3225,-0.3205,-0.3221,-0.3222,-0.3192,-0.32,-0.3172,-0.3176,-0.3161,-0.3199,-0.3185,-0.3203,-0.3199,-0.3237,-0.3234,-0.336,-0.3375,-0.3247,-0.3249,-0.325,0,-0.3309,-0.3327,-0.3303,-0.3307,-0.3299,-0.3308,-0.3309,-0.3273,-0.3276,-0.3264,-0.328,-0.3284,-0.3286,-0.3302,-0.3281,-0.3284,-0.327,-0.3314,-0.327,-0.328,-0.3272,-0.3272,-0.3275,-0.3323,-0.3325,-0.3326,-0.3327,0,-0.3417,-0.3401,-0.3404,-0.3402,-0.3404,-0.3401,-0.3396,-0.3402,-0.3363,-0.3369,-0.3376,-0.3378,-0.3381,-0.3386,-0.3385,-0.3376,-0.3346,-0.3341,-0.3349,-0.3361,-0.3372,-0.3368,-0.3229,-0.3339,-0.3337,-0.3337,-0.3336,-0.3336,-0.3501,-0.3516,-0.3501,-0.3505,-0.3497,-0.3492,-0.3503,-0.3484,-0.3489,-0.3488,-0.3467,-0.3478,-0.3467,-0.3461,-0.3455,-0.3464,-0.3444,-0.3456,-0.346,-0.3464,-0.3471,-0.3368,-0.3464,-0.3463,-0.3463,-0.3463,-0.3462,0,-0.3609,-0.3596,-0.3601,-0.3593,-0.3597,-0.3566,-0.3558,-0.3564,-0.3574,-0.3565,-0.3567,-0.3576,-0.3581,-0.356,-0.3562,-0.3574,-0.356,-0.3576,-0.3575,-0.3574,-0.3488,-0.3481,-0.3587,-0.3587,-0.3587,-0.3587,-0.3587,-0.3587,-0.3666,-0.3689,-0.3671,-0.369,-0.3677,-0.3688,-0.3686,-0.3682,-0.3674,-0.3685,-0.3688,-0.3674,-0.366,-0.3661,-0.3664,-0.3658,-0.3661,-0.3682,-0.3672,-0.3592,-0.358,-0.3569,-0.3562,-0.3683,-0.3683,-0.3757,-0.3758,-0.3758]}]]